Previsão horária em Aarau

Hoje, 11 Abril, Domingo

Tempo Temperatura Precipitação Vento Pressão Humidade
00:00 +9°C° 0 mm 1 m/s 722 mmHg 77%
01:00 +9°C° 0 mm 1 m/s 722 mmHg 77%
02:00 +8°C° 0 mm 1 m/s 722 mmHg 77%
03:00 +8°C° 0 mm 1 m/s 722 mmHg 78%
04:00 +8°C° 0 mm 1 m/s 722 mmHg 78%
05:00 +8°C° 0 mm 1 m/s 721 mmHg 78%
06:00 +8°C° 0 mm 1 m/s 721 mmHg 77%
07:00 +9°C° 0 mm 1 m/s 721 mmHg 77%
08:00 +11°C° 0 mm 1 m/s 721 mmHg 69%
09:00 +13°C° 0 mm 1 m/s 721 mmHg 61%
10:00 +15°C° 0 mm 1 m/s 721 mmHg 53%
11:00 +16°C° 0 mm 1 m/s 721 mmHg 49%
12:00 +18°C° 0 mm 2 m/s 721 mmHg 45%
13:00 +19°C° 0 mm 2 m/s 721 mmHg 41%
14:00 +18°C° 0.1 mm 2 m/s 721 mmHg 48%
15:00 +17°C° 0.1 mm 3 m/s 721 mmHg 56%
16:00 +17°C° 0.1 mm 3 m/s 720 mmHg 64%
17:00 +13°C° 0.9 mm 3 m/s 721 mmHg 74%
18:00 +11°C° 0.9 mm 3 m/s 722 mmHg 84%
19:00 +9°C° 0.9 mm 3 m/s 722 mmHg 94%
20:00 +8°C° 1.9 mm 2 m/s 723 mmHg 95%
21:00 +8°C° 1.9 mm 2 m/s 723 mmHg 95%
22:00 +7°C° 1.9 mm 2 m/s 724 mmHg 96%
23:00 +7°C° 0.5 mm 2 m/s 724 mmHg 96%

Amanhã, 12 Abril, Segunda-feira

Tempo Temperatura Precipitação Vento Pressão Humidade
00:00 +6°C° 0.5 mm 2 m/s 725 mmHg 96%
01:00 +6°C° 0.5 mm 2 m/s 725 mmHg 96%
02:00 +5°C° 1 mm 2 m/s 726 mmHg 97%
03:00 +4°C° 1 mm 2 m/s 726 mmHg 97%
04:00 +3°C° 1 mm 2 m/s 727 mmHg 98%
05:00 +3°C° 1 mm 2 m/s 727 mmHg 98%
06:00 +3°C° 1 mm 2 m/s 728 mmHg 99%
07:00 +3°C° 1 mm 1 m/s 729 mmHg 99%
08:00 +3°C° 0.8 mm 1 m/s 729 mmHg 98%
09:00 +3°C° 0.8 mm 1 m/s 730 mmHg 97%
10:00 +3°C° 0.8 mm 1 m/s 730 mmHg 97%
11:00 +4°C° 0.6 mm 1 m/s 731 mmHg 95%
12:00 +4°C° 0.6 mm 1 m/s 731 mmHg 93%
13:00 +3°C° 0.6 mm 2 m/s 731 mmHg 91%
14:00 +4°C° 0.6 mm 1 m/s 731 mmHg 89%
15:00 +4°C° 0.6 mm 1 m/s 732 mmHg 88%
16:00 +4°C° 0.6 mm 1 m/s 732 mmHg 87%
17:00 +4°C° 0.2 mm 1 m/s 732 mmHg 89%
18:00 +3°C° 0.2 mm 1 m/s 732 mmHg 92%
19:00 +3°C° 0.2 mm 1 m/s 732 mmHg 95%
20:00 +1°C° 0 mm 0 m/s 733 mmHg 96%
21:00 0°C° 0 mm 0 m/s 733 mmHg 97%
22:00 -1°C° 0 mm 0 m/s 733 mmHg 97%
23:00 -1°C° 0 mm 0 m/s 733 mmHg 97%

Depois de amanhã, 13 Abril, Terça-feira

Tempo Temperatura Precipitação Vento Pressão Humidade
00:00 -1°C° 0 mm 0 m/s 733 mmHg 97%
01:00 -1°C° 0 mm 0 m/s 733 mmHg 97%
02:00 -2°C° 0 mm 0 m/s 733 mmHg 97%
03:00 -2°C° 0 mm 0 m/s 733 mmHg 97%
04:00 -2°C° 0 mm 0 m/s 733 mmHg 97%
05:00 -2°C° 0 mm 0 m/s 733 mmHg 96%
06:00 -1°C° 0 mm 0 m/s 733 mmHg 95%
07:00 0°C° 0 mm 0 m/s 733 mmHg 94%
08:00 +1°C° 0.1 mm 0 m/s 734 mmHg 90%
09:00 +3°C° 0.1 mm 1 m/s 734 mmHg 87%
10:00 +5°C° 0.1 mm 1 m/s 734 mmHg 84%
11:00 +5°C° 0.4 mm 1 m/s 733 mmHg 82%
12:00 +6°C° 0.4 mm 1 m/s 733 mmHg 81%
13:00 +5°C° 0.4 mm 2 m/s 733 mmHg 79%
14:00 +5°C° 0.5 mm 2 m/s 733 mmHg 81%
15:00 +5°C° 0.5 mm 2 m/s 733 mmHg 83%
16:00 +5°C° 0.5 mm 2 m/s 733 mmHg 85%
17:00 +5°C° 0.5 mm 1 m/s 733 mmHg 88%
18:00 +4°C° 0.5 mm 1 m/s 733 mmHg 90%
19:00 +4°C° 0.5 mm 1 m/s 733 mmHg 93%
20:00 +3°C° 0.1 mm 1 m/s 733 mmHg 93%
21:00 +2°C° 0.1 mm 1 m/s 734 mmHg 93%
22:00 0°C° 0.1 mm 0 m/s 734 mmHg 93%
23:00 -1°C° 0 mm 0 m/s 734 mmHg 93%

14 Abril, Quarta-feira

Tempo Temperatura Precipitação Vento Pressão Humidade
00:00 -1°C° 0 mm 1 m/s 734 mmHg 94%
01:00 -2°C° 0 mm 1 m/s 734 mmHg 94%
02:00 -2°C° 0 mm 1 m/s 734 mmHg 95%
03:00 -3°C° 0 mm 0 m/s 734 mmHg 95%
04:00 -4°C° 0 mm 0 m/s 734 mmHg 95%
05:00 -3°C° 0 mm 0 m/s 734 mmHg 94%
06:00 -2°C° 0 mm 0 m/s 734 mmHg 93%
07:00 -1°C° 0 mm 0 m/s 734 mmHg 92%
08:00 +1°C° 0 mm 1 m/s 734 mmHg 86%
09:00 +2°C° 0 mm 2 m/s 733 mmHg 80%
10:00 +4°C° 0 mm 2 m/s 733 mmHg 74%
11:00 +5°C° 0.2 mm 2 m/s 733 mmHg 69%
12:00 +6°C° 0.2 mm 2 m/s 732 mmHg 63%
13:00 +7°C° 0.2 mm 2 m/s 732 mmHg 57%
14:00 +7°C° 0.4 mm 2 m/s 732 mmHg 62%
15:00 +6°C° 0.4 mm 2 m/s 732 mmHg 67%
16:00 +6°C° 0.4 mm 2 m/s 731 mmHg 72%
17:00 +5°C° 0.5 mm 2 m/s 731 mmHg 78%
18:00 +4°C° 0.5 mm 2 m/s 731 mmHg 85%
19:00 +4°C° 0.5 mm 1 m/s 732 mmHg 92%
20:00 +3°C° 0.1 mm 1 m/s 732 mmHg 93%
21:00 +2°C° 0.1 mm 1 m/s 732 mmHg 94%
22:00 +2°C° 0.1 mm 1 m/s 732 mmHg 95%
23:00 +1°C° 0 mm 1 m/s 732 mmHg 95%

15 Abril, Quinta-feira

Tempo Temperatura Precipitação Vento Pressão Humidade
00:00 0°C° 0 mm 1 m/s 732 mmHg 95%
01:00 -1°C° 0 mm 1 m/s 732 mmHg 95%
02:00 -1°C° 0 mm 1 m/s 732 mmHg 95%
03:00 -1°C° 0 mm 1 m/s 732 mmHg 95%
04:00 -2°C° 0 mm 1 m/s 732 mmHg 95%
05:00 -1°C° 0 mm 1 m/s 732 mmHg 94%
06:00 -1°C° 0 mm 1 m/s 732 mmHg 93%
07:00 -1°C° 0 mm 0 m/s 732 mmHg 93%
08:00 +2°C° 0 mm 1 m/s 732 mmHg 85%
09:00 +2°C° 0 mm 2 m/s 732 mmHg 78%
10:00 +3°C° 0 mm 3 m/s 732 mmHg 71%
11:00 +4°C° 0.1 mm 3 m/s 732 mmHg 63%
12:00 +5°C° 0.1 mm 3 m/s 732 mmHg 54%
13:00 +7°C° 0.1 mm 3 m/s 731 mmHg 46%
14:00 +6°C° 0.1 mm 4 m/s 731 mmHg 52%
15:00 +6°C° 0.1 mm 4 m/s 731 mmHg 58%
16:00 +6°C° 0.1 mm 5 m/s 731 mmHg 64%
17:00 +4°C° 0.1 mm 4 m/s 731 mmHg 68%
18:00 +3°C° 0.1 mm 3 m/s 731 mmHg 72%
19:00 +3°C° 0.1 mm 2 m/s 731 mmHg 76%
20:00 +2°C° 0 mm 2 m/s 731 mmHg 80%
21:00 +1°C° 0 mm 2 m/s 731 mmHg 83%
22:00 -2°C° 0 mm 2 m/s 732 mmHg 87%
23:00 -2°C° 0 mm 2 m/s 731 mmHg 89%

16 Abril, Sexta-feira

Tempo Temperatura Precipitação Vento Pressão Humidade
00:00 -3°C° 0 mm 2 m/s 731 mmHg 91%
01:00 -3°C° 0 mm 2 m/s 731 mmHg 93%
02:00 -1°C° 0 mm 1 m/s 731 mmHg 93%
03:00 -1°C° 0 mm 1 m/s 731 mmHg 93%
04:00 -1°C° 0 mm 1 m/s 731 mmHg 94%
05:00 -3°C° 0 mm 2 m/s 731 mmHg 90%
06:00 -2°C° 0 mm 2 m/s 731 mmHg 86%
07:00 -1°C° 0 mm 2 m/s 731 mmHg 83%
08:00 0°C° 0 mm 3 m/s 731 mmHg 76%
09:00 +1°C° 0 mm 3 m/s 731 mmHg 69%
10:00 +3°C° 0 mm 3 m/s 731 mmHg 62%
11:00 +5°C° 0 mm 3 m/s 730 mmHg 57%
12:00 +8°C° 0 mm 3 m/s 729 mmHg 51%
13:00 +9°C° 0 mm 3 m/s 729 mmHg 45%
14:00 +10°C° 0 mm 3 m/s 729 mmHg 45%
15:00 +10°C° 0 mm 3 m/s 728 mmHg 45%
16:00 +10°C° 0 mm 3 m/s 728 mmHg 46%
17:00 +8°C° 0 mm 4 m/s 728 mmHg 55%
18:00 +6°C° 0 mm 4 m/s 728 mmHg 64%
19:00 +4°C° 0 mm 4 m/s 728 mmHg 74%
20:00 +3°C° 0 mm 3 m/s 729 mmHg 80%
21:00 +2°C° 0 mm 2 m/s 729 mmHg 86%
22:00 +2°C° 0 mm 1 m/s 729 mmHg 92%
23:00 +2°C° 0 mm 1 m/s 729 mmHg 93%
Mostrar mais